Regional Weather Roundup
Issued by NWS

Home | Current Version | Previous Version | Graphics & Text | Print | Product List | Glossary On
Versions: 1 2 3 4 5 6 7 8 9 10 11 12 13 14 15 16 17 18 19 20 21 22 23 24 25 26 27 28 29 30 31 32 33 34 35 36 37 38 39 40 41 42 43 44 45 46 47 48 49 50
000
ASUS43 KOAX 271510
RWRNE

WEATHER ROUNDUP FOR NEBRASKA
NATIONAL WEATHER SERVICE OMAHA NE
1000 AM CDT THU AUG 27 2015

NOTES: SATELLITE DATA IS BEING USED TO AUGMENT CLOUD COVER ABOVE
       12000 FEET.
       "FAIR" INDICATES FEW OR NO CLOUDS BELOW 12,000 FEET WITH NO
       SIGNIFICANT WEATHER AND/OR OBSTRUCTIONS TO VISIBILITY.

  * THESE STATIONS DO NOT REPORT WEATHER SUCH AS RAIN...SNOW OR FOG.

NEZ001>004-019>022-054>056-271600-
NEBRASKA PANHANDLE

CITY           SKY/WX    TMP DP  RH WIND       PRES   REMARKS
SCOTTSBLUFF    PTSUNNY   72  62  71 NW16      30.05S
ALLIANCE       CLOUDY    68  63  84 NW15      30.02R
CHADRON        CLOUDY    69  58  67 N7        30.04S
KIMBALL        MOSUNNY   72  52  50 NW17G25   30.08S
SIDNEY         PTSUNNY   72  62  71 NW20      30.03F
$$

NEZ057>060-069>072-079>082-271600-
SOUTHWEST NEBRASKA

CITY           SKY/WX    TMP DP  RH WIND       PRES   REMARKS
NORTH PLATTE   CLOUDY    70  63  78 SE8       29.91F
IMPERIAL       CLOUDY    72  53  51 CALM      29.93F
LEXINGTON      PTSUNNY   74  69  82 E8        29.92F
MCCOOK         CLOUDY    82  60  47 S6        29.90F
OGALLALA       CLOUDY    66  56  71 CALM      29.95R
$$

NEZ005>010-023>029-035>040-094-271600-
NORTH CENTRAL NEBRASKA

CITY           SKY/WX    TMP DP  RH WIND       PRES   REMARKS
VALENTINE      CLOUDY    68  64  87 E12       29.95S
AINSWORTH      CLOUDY    68  66  92 SE15      29.94F
BROKEN BOW     CLOUDY    71  67  87 E12       29.94F
O`NEILL        CLOUDY    69  67  94 SE13      29.94F
ORD            CLOUDY    69  66  90 SE10      29.92F
THEDFORD       MOSUNNY   70  67  88 SE10      29.93F
$$

NEZ041-046>049-061>064-073>077-083>087-271600-
SOUTH CENTRAL NEBRASKA

CITY           SKY/WX    TMP DP  RH WIND       PRES   REMARKS
GRAND ISLAND   CLOUDY    70  66  87 SE12      29.96F
AURORA         PTSUNNY   71  69  92 SE14      29.96F
HASTINGS       PTSUNNY   74  69  85 SE9       29.95S
HEBRON         PTSUNNY   75  67  74 SE8       29.96F
HOLDREGE       PTSUNNY   75  65  71 CALM      29.93S
KEARNEY *      MOSUNNY   73  66  78 E8        29.93F
YORK           MOSUNNY   70  66  88 SE13      29.98S
$$

NEZ011>018-030>034-042>045-271600-
NORTHEAST NEBRASKA

CITY           SKY/WX    TMP DP  RH WIND       PRES   REMARKS
NORFOLK        CLOUDY    69  64  84 E10       29.98F
ALBION         CLOUDY    71  65  79 SE10      29.96F
BLAIR          CLOUDY    66  60  79 SE9       30.03R
COLUMBUS *     CLOUDY    70  61  73 SE7G16    29.97F
FREMONT        CLOUDY    71  64  78 E9        30.01F
TEKAMAH        CLOUDY    66  61  84 E7        30.03F
WAYNE          CLOUDY    69  63  82 SE9       30.01F
$$

NEZ050>053-065>068-078-088>093-271600-
SOUTHEAST NEBRASKA

CITY           SKY/WX    TMP DP  RH WIND       PRES   REMARKS
LINCOLN        PTSUNNY   72  62  71 S18G26    29.98F
OMAHA EPPLEY   CLOUDY    67  60  78 S10       30.02R
BEATRICE       MOSUNNY   72  63  73 SE7       30.00F
FALLS CITY     CLOUDY    68  60  75 E7        30.06R
NEBRASKA CITY  CLOUDY    65  56  72 SE9       30.03S
PLATTSMOUTH    CLOUDY    65  59  80 SE12G18   30.02S
$$

NEZ044-045-051>053-067-271600-
OMAHA AREA

CITY           SKY/WX    TMP DP  RH WIND       PRES   REMARKS
OMAHA EPPLEY   CLOUDY    67  60  78 S10       30.02R
BLAIR          CLOUDY    66  60  79 SE9       30.03R
FREMONT        CLOUDY    71  64  78 E9        30.01F
MILLARD        CLOUDY    69  64  84 SE8       30.02S
OFFUTT AFB     CLOUDY    66  61  82 SE15      30.01F
PLATTSMOUTH    CLOUDY    65  59  80 SE12G18   30.02S
WAHOO          FAIR      72  64  76 SE13      30.01R
$$




USA.gov is the U.S. government's official web portal to all federal, state and local government web resources and services.